Location: Az?znagar
(16.8373°N, 80.5091°E)
Time: 12:02:01
(UTC+00:00)

CZ-4C R/B - Pass Details

Date: 12 July 2022
Orbit: 395 x 462 km, 97.7° (Epoch: 14 August)

Event Time Altitude Azimuth Distance (km) Brightness Sun altitude
Rises 14:09:15 0° 1° (N) 2,478 7.0 -12.5°
Reaches altitude 10° 14:11:22 10° 353° (N) 1,608 6.2 -12.9°
Maximum altitude 14:14:37 40° 283° (WNW) 694 4.4 -13.6°
Drops below altitude 10° 14:17:53 10° 212° (SSW) 1,609 5.7 -14.3°
Sets 14:20:00 0° 205° (SSW) 2,481 6.6 -14.7°
